Showing default

SHIYAN 6 (SY-6), 43711

Orbit data source: Space-Track

SHIYAN 6 (SY-6), 43711 is a payload satellite owned by CNSA (CN) in SSO that was launched on Mon, 19 Nov 2018 UTC via a CHANG ZHENG 2D launch vehicle from the Jiuquan Satellite Launch Center, China (JSC). Payload-class satellites include a variety of spacecraft equipped with specific instruments for various scientific and technological missions. These include communications satellites like Starlink; space stations such as the ISS; scientific satellites like the Hubble; Earth observation satellites from companies like Planet Labs, Umbra, and HawkEye 360; GPS; miniature CubeSats for education and research; and military/defense satellites.

Loading next visibility...
Identifier
43711, 2018-094B
Orbit
SSO
Country
Flag of CNCN / PRC
Related business
Manufacturer
DFH Shenzhen
Mission
Operational Defense Technology
Bus & Motor
SW6, AOCS
Mass
~1,000 kg wet, ~900 kg dry
Launch date (UTC)
2018-11-19 (8 years ago)
Launch vehicle
CHANG ZHENG 2D
Launch site
Jiuquan Satellite Launch Center, China (JSC)
Object type
Payload
Rocket body
Debris
Shape & HBR
Box + 2 Pan, 2.0 m
Radar Cross Section
3.315 m², Large (>1 m²)

Expand to show TLE details & history
Last TLE update: 14 hours ago

TLE from 14 hours ago
0 SHIYAN 6 (SY-6)
1 43711U 18094B   26257.30262281  .00003836  00000-0  13293-3 0  9995
2 43711  97.3598 270.6225 0012381 183.8560 176.2587 15.30372393435115
Epoch: 2026-09-14T07:15Z
TLE epoch observation values (Epoch: 2026-09-14T07:15:46.610Z)
Latitude
-0.0001°
Longitude
168.39344°
Altitude
486.274 km
Speed
7.617 km/s
True Right ascension
18h 02m 29s
True Declination
0° 00' 00"
Sunlit
Object was in daylight at epoch
Visualization orbit readout
Latitude
Unknown
Longitude
Unknown
Altitude
Unknown
Speed
Unknown
Apparent Right ascension
Unknown
Apparent Declination
Unknown
Sunlit
N/A
Visualization observer readout
Local Sidereal Time
13:40:06
Azimuth
Unknown
Elevation
Unknown
Doppler factor
Unknown
Orbital elements
Apogee altitude
480.131 km
Perigee altitude
463.17 km
Semi-major axis
6,849.787 km
Eccentricity
0.00124
Inclination
97.3598°
RAAN
270.6225°
Arg. of periapsis
183.856°
True anomaly
176.26794°
Mean anomaly
176.2587°
Eccentric anomaly
176.26332°
Mean motion
3.82849 °/min
Orbital period
94.03 mins
BSTAR
0.00013293
Loading maneuver chart data...
Computing Atmospheric mass density...
Loading historical data...
Loading historical data...
Loading historical data...
Loading historical data...
Loading historical data...
Loading historical data...
Loading historical data...

Documentation

Showing up to 5 results
|